Find Starlink 34392

NORAD ID: 64451 Int'l Des: 2025-130 Owner: SPXS Country: US Constellation: starlink operational
LEOCIRCULAR

Live Position

Loading 3D Globe...

About Starlink 34392

Description loading...

Upcoming Passes

Passes for default location (London). Set your location on the main map for personalized predictions.

Altitude History

Loading altitude history...

Two-Line Element Set

1 64451U 25130P 26104.90416240 .00011555 00000-0 40157-3 0 9997
2 64451 53.1589 280.6056 0000953 86.3941 273.7168 15.30205558 46242
Epoch: Apr 14, 2026 • Age: 12 hours

Current Status

Altitude 494.1 km
Velocity 7.62 km/s
Sub-Earth Point -52.58°S, 175.61°W
Launch Date Jun 18, 2025
Age 0.8 years
Type internet

Technical Details

Classification Payload
Mass 575.00 kg
Dry Mass 530.00 kg
Total Mass 575.00 kg
Length 0.30 m
Diameter 4.10 m
Span 29.00 m
Shape Box + pan
Manufacturer SPXS
Bus Type Starlink V2MO
Phase Status In Orbit
Owner/State SPXS/US

Most Searched